{"data":{"norad_id":65405,"intl_designator":"2025-192B","name":"STARLINK-34830","alt_names":[],"object_type":"PAYLOAD","status":"ACTIVE","operator":null,"country":"US","launch_date":"2025-08-31","launch_site_code":"AFETR","launch_vehicle":null,"mission":null,"orbit_class":"UNKNOWN","rcs_meters":null,"size_class":null,"mass_kg":null,"dimensions":null,"purposes":["comms"],"wikipedia_slug":null,"has_3d_model":false,"image_url":null,"decayed_at":null,"tle_current":{"epoch":"2026-09-20T13:53:53.686176Z","epoch_age_seconds":108061,"freshness":"FRESH","line1":"1 65405U 25192B   26263.57909359 -.00000900  00000+0 -17245-4 0  9998","line2":"2 65405  53.1566  45.6237 0001184  49.7493 310.3612 15.31705344 59255","mean_motion":15.31705344,"eccentricity":0.0001184,"inclination_deg":53.1566,"raan_deg":45.6237,"arg_perigee_deg":49.7493,"mean_anomaly_deg":310.3612,"bstar":-1.7245e-5,"rev_number":5925,"period_min":94.012859956438,"perigee_km":469.91315993594,"apogee_km":471.53497023615,"semimajor_km":6848.861065086,"source":"CELESTRAK","updated_at":"2026-09-21T09:00:35.602449Z"}}}